Tracking 29892 objects as of 21-Nov-2024
HD Live streaming from Space Station
objects crossing your sky now

STARLINK-2751

Track STARLINK-2751 now!
10-day predictions
STARLINK-2751 is classified as:


NORAD ID: 48685
Int'l Code: 2021-044AZ
Perigee: 553.6 km
Apogee: 555.0 km
Inclination: 53.1 °
Period: 95.6 minutes
Semi major axis: 6925 km
RCS: Unknown
Launch date: May 26, 2021
Source: United States (US)
Launch site: AIR FORCE EASTERN TEST RANGE (AFETR)
Your satellite tracking list
Your tracking list is empty




NASA's NSSDC Master Catalog

Two Line Element Set (TLE):
1 48685U 21044AZ  24325.20063039  .00004111  00000-0  29456-3 0  9997
2 48685  53.0532  41.7249 0001044  75.5587 284.5518 15.06416183193735
Source of the keplerian elements: AFSPC